Time,TemperatureF,DewpointF,PressureIn,WindDirection,WindDirectionDegrees,WindSpeedMPH,WindSpeedGustMPH,Humidity,HourlyPrecipIn,Conditions,Clouds,dailyrainin,SoftwareType,DateUTC
2013-02-14 00:12:00,49.6,31.0,30.11,South,187,0.0,1.0,49,0.00,,,0.00,weatherlink.com 1.10,2013-02-14 08:12:00,
2013-02-14 00:27:00,50.1,30.0,30.12,WNW,285,1.0,2.0,46,0.00,,,0.00,weatherlink.com 1.10,2013-02-14 08:27:00,
2013-02-14 00:42:00,50.1,28.0,30.11,West,281,0.0,1.0,43,0.00,,,0.00,weatherlink.com 1.10,2013-02-14 08:42:00,
2013-02-14 00:57:00,50.2,30.0,30.12,SSW,204,0.0,2.0,46,0.00,,,0.00,weatherlink.com 1.10,2013-02-14 08:57:00,
2013-02-14 01:12:00,49.5,30.0,30.12,South,173,0.0,1.0,47,0.00,,,0.00,weatherlink.com 1.10,2013-02-14 09:12:00,
2013-02-14 01:27:00,49.6,28.0,30.12,SW,229,1.0,1.0,44,0.00,,,0.00,weatherlink.com 1.10,2013-02-14 09:27:00,
2013-02-14 01:42:00,48.8,29.0,30.11,WSW,238,0.0,1.0,46,0.00,,,0.00,weatherlink.com 1.10,2013-02-14 09:42:00,
2013-02-14 01:57:00,49.0,28.0,30.11,South,186,0.0,1.0,45,0.00,,,0.00,weatherlink.com 1.10,2013-02-14 09:57:00,
2013-02-14 02:12:00,48.4,29.0,30.11,South,173,0.0,1.0,47,0.00,,,0.00,weatherlink.com 1.10,2013-02-14 10:12:00,
2013-02-14 02:27:00,49.1,29.0,30.10,South,173,0.0,0.0,47,0.00,,,0.00,weatherlink.com 1.10,2013-02-14 10:27:00,
2013-02-14 02:42:00,49.1,29.0,30.10,SSE,155,0.0,1.0,47,0.00,,,0.00,weatherlink.com 1.10,2013-02-14 10:42:00,
2013-02-14 02:57:00,48.3,29.0,30.09,WSW,239,0.0,1.0,47,0.00,,,0.00,weatherlink.com 1.10,2013-02-14 10:57:00,
2013-02-14 03:12:00,48.4,29.0,30.09,SSW,204,0.0,2.0,48,0.00,,,0.00,weatherlink.com 1.10,2013-02-14 11:12:00,
2013-02-14 03:27:00,47.4,28.0,30.09,SE,141,1.0,1.0,47,0.00,,,0.00,weatherlink.com 1.10,2013-02-14 11:27:00,
2013-02-14 03:42:00,48.9,28.0,30.09,WSW,248,0.0,1.0,44,0.00,,,0.00,weatherlink.com 1.10,2013-02-14 11:42:00,
2013-02-14 03:57:00,47.3,29.0,30.09,WSW,248,0.0,0.0,49,0.00,,,0.00,weatherlink.com 1.10,2013-02-14 11:57:00,
2013-02-14 04:12:00,47.0,29.0,30.09,WSW,249,0.0,1.0,49,0.00,,,0.00,weatherlink.com 1.10,2013-02-14 12:12:00,
2013-02-14 04:27:00,47.0,27.0,30.09,SSW,211,1.0,2.0,46,0.00,,,0.00,weatherlink.com 1.10,2013-02-14 12:27:00,
2013-02-14 04:43:00,46.5,29.0,30.09,WNW,293,0.0,1.0,51,0.00,,,0.00,weatherlink.com 1.10,2013-02-14 12:43:00,
2013-02-14 04:58:00,47.0,28.0,30.09,WNW,294,0.0,1.0,47,0.00,,,0.00,weatherlink.com 1.10,2013-02-14 12:58:00,
2013-02-14 05:13:00,46.6,29.0,30.09,SSW,203,0.0,0.0,50,0.00,,,0.00,weatherlink.com 1.10,2013-02-14 13:13:00,
2013-02-14 05:28:00,45.9,30.0,30.10,SSW,204,0.0,1.0,55,0.00,,,0.00,weatherlink.com 1.10,2013-02-14 13:28:00,
2013-02-14 05:43:00,45.9,28.0,30.10,SSW,204,0.0,0.0,49,0.00,,,0.00,weatherlink.com 1.10,2013-02-14 13:43:00,
2013-02-14 05:58:00,45.2,30.0,30.10,SSW,203,0.0,1.0,55,0.00,,,0.00,weatherlink.com 1.10,2013-02-14 13:58:00,
2013-02-14 06:13:00,44.8,31.0,30.11,SSW,204,0.0,0.0,59,0.00,,,0.00,weatherlink.com 1.10,2013-02-14 14:13:00,
2013-02-14 06:28:00,44.1,30.0,30.11,SSW,204,0.0,1.0,58,0.00,,,0.00,weatherlink.com 1.10,2013-02-14 14:28:00,
2013-02-14 06:58:00,45.5,30.0,30.11,South,183,0.0,0.0,55,0.00,,,0.00,weatherlink.com 1.10,2013-02-14 14:58:00,
2013-02-14 07:13:00,49.3,31.0,30.12,South,183,0.0,1.0,49,0.00,,,0.00,weatherlink.com 1.10,2013-02-14 15:13:00,
2013-02-14 07:28:00,51.8,31.0,30.12,SSE,152,2.0,2.0,45,0.00,,,0.00,weatherlink.com 1.10,2013-02-14 15:28:00,
2013-02-14 07:43:00,55.1,31.0,30.12,SSE,153,0.0,1.0,40,0.00,,,0.00,weatherlink.com 1.10,2013-02-14 15:43:00,
2013-02-14 07:58:00,59.3,33.0,30.13,SSE,153,0.0,1.0,38,0.00,,,0.00,weatherlink.com 1.10,2013-02-14 15:58:00,
2013-02-14 08:13:00,61.9,34.0,30.13,East,94,1.0,1.0,36,0.00,,,0.00,weatherlink.com 1.10,2013-02-14 16:13:00,
2013-02-14 08:28:00,63.9,33.0,30.13,SE,141,0.0,1.0,32,0.00,,,0.00,weatherlink.com 1.10,2013-02-14 16:28:00,
2013-02-14 08:43:00,66.2,34.0,30.14,SE,141,0.0,0.0,30,0.00,,,0.00,weatherlink.com 1.10,2013-02-14 16:43:00,
2013-02-14 08:58:00,68.3,32.0,30.14,East,91,1.0,1.0,26,0.00,,,0.00,weatherlink.com 1.10,2013-02-14 16:58:00,
2013-02-14 09:13:00,69.4,30.0,30.14,ESE,105,0.0,2.0,23,0.00,,,0.00,weatherlink.com 1.10,2013-02-14 17:13:00,
2013-02-14 09:28:00,68.7,30.0,30.15,NNE,18,0.0,2.0,24,0.00,,,0.00,weatherlink.com 1.10,2013-02-14 17:28:00,
2013-02-14 09:43:00,70.2,33.0,30.15,ESE,102,0.0,2.0,25,0.00,,,0.00,weatherlink.com 1.10,2013-02-14 17:43:00,
2013-02-14 09:58:00,71.2,34.0,30.16,NE,36,1.0,2.0,25,0.00,,,0.00,weatherlink.com 1.10,2013-02-14 17:58:00,
2013-02-14 10:13:00,72.8,33.0,30.16,SSE,153,0.0,2.0,23,0.00,,,0.00,weatherlink.com 1.10,2013-02-14 18:13:00,
2013-02-14 10:28:00,74.6,25.0,30.16,NW,322,2.0,8.0,16,0.00,,,0.00,weatherlink.com 1.10,2013-02-14 18:28:00,
2013-02-14 10:59:00,76.1,25.0,30.15,WNW,301,3.0,5.0,15,0.00,,,0.00,weatherlink.com 1.10,2013-02-14 18:59:00,
2013-02-14 11:14:00,76.1,27.0,30.14,WSW,258,6.0,9.0,16,0.00,,,0.00,weatherlink.com 1.10,2013-02-14 19:14:00,
2013-02-14 11:29:00,76.5,25.0,30.13,NW,320,4.0,7.0,15,0.00,,,0.00,weatherlink.com 1.10,2013-02-14 19:29:00,
2013-02-14 11:44:00,76.9,27.0,30.13,NW,320,2.0,10.0,16,0.00,,,0.00,weatherlink.com 1.10,2013-02-14 19:44:00,
2013-02-14 11:59:00,77.5,26.0,30.11,NNE,19,1.0,10.0,15,0.00,,,0.00,weatherlink.com 1.10,2013-02-14 19:59:00,
2013-02-14 12:14:00,77.9,27.0,30.11,WNW,300,2.0,7.0,15,0.00,,,0.00,weatherlink.com 1.10,2013-02-14 20:14:00,
2013-02-14 12:29:00,77.8,25.0,30.10,SSW,197,2.0,7.0,14,0.00,,,0.00,weatherlink.com 1.10,2013-02-14 20:29:00,
2013-02-14 12:44:00,79.0,26.0,30.09,NW,309,3.0,7.0,14,0.00,,,0.00,weatherlink.com 1.10,2013-02-14 20:44:00,
2013-02-14 12:59:00,78.0,25.0,30.08,NNE,17,5.0,8.0,14,0.00,,,0.00,weatherlink.com 1.10,2013-02-14 20:59:00,
2013-02-14 13:14:00,78.6,25.0,30.07,NW,309,3.0,5.0,14,0.00,,,0.00,weatherlink.com 1.10,2013-02-14 21:14:00,
2013-02-14 13:29:00,78.6,25.0,30.07,NNE,18,2.0,6.0,14,0.00,,,0.00,weatherlink.com 1.10,2013-02-14 21:29:00,
2013-02-14 13:44:00,78.9,26.0,30.06,West,270,2.0,7.0,14,0.00,,,0.00,weatherlink.com 1.10,2013-02-14 21:44:00,
2013-02-14 13:59:00,79.0,26.0,30.06,North,1,1.0,9.0,14,0.00,,,0.00,weatherlink.com 1.10,2013-02-14 21:59:00,
2013-02-14 14:14:00,80.1,25.0,30.05,WSW,253,3.0,3.0,13,0.00,,,0.00,weatherlink.com 1.10,2013-02-14 22:14:00,
2013-02-14 14:29:00,80.3,25.0,30.05,North,8,2.0,5.0,13,0.00,,,0.00,weatherlink.com 1.10,2013-02-14 22:29:00,
2013-02-14 14:45:00,79.7,23.0,30.05,NW,307,3.0,10.0,12,0.00,,,0.00,weatherlink.com 1.10,2013-02-14 22:45:00,
2013-02-14 14:59:00,79.4,22.0,30.05,NW,309,6.0,9.0,12,0.00,,,0.00,weatherlink.com 1.10,2013-02-14 22:59:00,
2013-02-14 15:14:00,78.1,23.0,30.05,North,9,1.0,9.0,13,0.00,,,0.00,weatherlink.com 1.10,2013-02-14 23:14:00,
2013-02-14 15:29:00,77.2,23.0,30.04,NNE,28,4.0,5.0,13,0.00,,,0.00,weatherlink.com 1.10,2013-02-14 23:29:00,
2013-02-14 15:44:00,77.1,23.0,30.04,NNW,336,3.0,8.0,13,0.00,,,0.00,weatherlink.com 1.10,2013-02-14 23:44:00,
2013-02-14 15:59:00,76.8,22.0,30.04,North,350,0.0,6.0,13,0.00,,,0.00,weatherlink.com 1.10,2013-02-14 23:59:00,
2013-02-14 16:14:00,76.8,22.0,30.04,NW,316,5.0,8.0,13,0.00,,,0.00,weatherlink.com 1.10,2013-02-15 00:14:00,
2013-02-14 16:29:00,76.7,22.0,30.04,NW,307,4.0,9.0,13,0.00,,,0.00,weatherlink.com 1.10,2013-02-15 00:29:00,
2013-02-14 16:44:00,76.3,22.0,30.05,WNW,301,1.0,6.0,13,0.00,,,0.00,weatherlink.com 1.10,2013-02-15 00:44:00,
2013-02-14 16:59:00,76.2,22.0,30.05,NW,323,3.0,8.0,13,0.00,,,0.00,weatherlink.com 1.10,2013-02-15 00:59:00,
2013-02-14 17:14:00,75.9,22.0,30.05,NW,308,7.0,10.0,13,0.00,,,0.00,weatherlink.com 1.10,2013-02-15 01:14:00,
2013-02-14 17:29:00,75.4,23.0,30.05,NNE,33,2.0,6.0,14,0.00,,,0.00,weatherlink.com 1.10,2013-02-15 01:29:00,
2013-02-14 17:44:00,74.3,24.0,30.06,NW,314,1.0,3.0,15,0.00,,,0.00,weatherlink.com 1.10,2013-02-15 01:44:00,
2013-02-14 17:59:00,74.2,24.0,30.07,NW,312,1.0,5.0,15,0.00,,,0.00,weatherlink.com 1.10,2013-02-15 01:59:00,
2013-02-14 18:14:00,74.0,23.0,30.07,North,4,1.0,4.0,15,0.00,,,0.00,weatherlink.com 1.10,2013-02-15 02:14:00,
2013-02-14 18:29:00,73.9,23.0,30.08,NW,309,2.0,6.0,15,0.00,,,0.00,weatherlink.com 1.10,2013-02-15 02:29:00,
2013-02-14 18:44:00,73.5,23.0,30.08,West,276,2.0,4.0,15,0.00,,,0.00,weatherlink.com 1.10,2013-02-15 02:44:00,
2013-02-14 18:59:00,73.0,23.0,30.09,West,281,1.0,5.0,15,0.00,,,0.00,weatherlink.com 1.10,2013-02-15 02:59:00,
2013-02-14 19:14:00,72.7,22.0,30.10,West,260,4.0,8.0,15,0.00,,,0.00,weatherlink.com 1.10,2013-02-15 03:14:00,
2013-02-14 19:29:00,72.8,22.0,30.10,West,280,2.0,8.0,15,0.00,,,0.00,weatherlink.com 1.10,2013-02-15 03:29:00,
2013-02-14 19:44:00,73.0,23.0,30.11,NW,314,1.0,9.0,15,0.00,,,0.00,weatherlink.com 1.10,2013-02-15 03:44:00,
2013-02-14 19:59:00,73.0,23.0,30.11,WNW,292,2.0,10.0,15,0.00,,,0.00,weatherlink.com 1.10,2013-02-15 03:59:00,
2013-02-14 20:14:00,73.0,23.0,30.12,WNW,302,6.0,10.0,15,0.00,,,0.00,weatherlink.com 1.10,2013-02-15 04:14:00,
2013-02-14 20:29:00,72.5,22.0,30.13,WSW,256,3.0,6.0,15,0.00,,,0.00,weatherlink.com 1.10,2013-02-15 04:29:00,
2013-02-14 20:44:00,72.7,22.0,30.13,NNW,329,2.0,8.0,15,0.00,,,0.00,weatherlink.com 1.10,2013-02-15 04:44:00,
2013-02-14 20:59:00,72.9,23.0,30.13,NW,316,2.0,10.0,15,0.00,,,0.00,weatherlink.com 1.10,2013-02-15 04:59:00,
2013-02-14 21:14:00,72.6,22.0,30.14,NW,307,3.0,9.0,15,0.00,,,0.00,weatherlink.com 1.10,2013-02-15 05:14:00,
2013-02-14 21:29:00,72.9,23.0,30.14,West,273,4.0,11.0,15,0.00,,,0.00,weatherlink.com 1.10,2013-02-15 05:29:00,
2013-02-14 21:44:00,72.9,23.0,30.15,WSW,246,3.0,9.0,15,0.00,,,0.00,weatherlink.com 1.10,2013-02-15 05:44:00,
2013-02-14 21:59:00,72.9,23.0,30.15,West,268,1.0,9.0,15,0.00,,,0.00,weatherlink.com 1.10,2013-02-15 05:59:00,
2013-02-14 22:14:00,69.8,24.0,30.15,SSE,153,0.0,3.0,18,0.00,,,0.00,weatherlink.com 1.10,2013-02-15 06:14:00,
2013-02-14 22:29:00,66.5,25.0,30.16,ESE,111,0.0,2.0,21,0.00,,,0.00,weatherlink.com 1.10,2013-02-15 06:29:00,
2013-02-14 22:44:00,65.1,25.0,30.16,WSW,242,1.0,1.0,22,0.00,,,0.00,weatherlink.com 1.10,2013-02-15 06:44:00,
2013-02-14 22:59:00,63.4,25.0,30.16,WSW,242,0.0,1.0,23,0.00,,,0.00,weatherlink.com 1.10,2013-02-15 06:59:00,
2013-02-14 23:14:00,62.2,26.0,30.16,SSW,212,0.0,1.0,25,0.00,,,0.00,weatherlink.com 1.10,2013-02-15 07:14:00,
2013-02-14 23:29:00,61.4,27.0,30.16,East,88,0.0,2.0,27,0.00,,,0.00,weatherlink.com 1.10,2013-02-15 07:29:00,
2013-02-14 23:44:00,62.2,28.0,30.16,NNE,32,0.0,3.0,27,0.00,,,0.00,weatherlink.com 1.10,2013-02-15 07:44:00,
2013-02-14 23:59:00,63.0,27.0,30.16,North,5,1.0,2.0,26,0.00,,,0.00,weatherlink.com 1.10,2013-02-15 07:59:00,